Cheektowaga, NY

11:42 PM EDT on July 24, 2016 (GMT -0400)
Buffalo Niagara International

Weather History for KBUF - August, 2013

Change the Weather History Date:

Monday, August 12, 2013

  Actual Average Record
Temperature  
Mean Temperature 70 °F 70 °F  
Max Temperature 76 °F 79 °F 93 °F (1988)
Min Temperature 63 °F 62 °F 49 °F (1967)
Degree Days  
Heating Degree Days 0 0  
Month to date heating degree days 3 0  
Since 1 June heating degree days 73 73  
Since 1 July heating degree days 9 9  
Cooling Degree Days 5 6  
Month to date cooling degree days 45 72  
Year to date cooling degree days 455 398  
Since 1 June cooling degree days 384 372  
Growing Degree Days 19 (Base 50)    
Moisture  
Dew Point 59 °F    
Average Humidity 66    
Maximum Humidity 78    
Minimum Humidity 53    
Precipitation  
Precipitation 0.01 in 0.11 in 0.97 in (1908)
Month to date precipitation 1.82 1.31  
Year to date precipitation 25.94 23.21  
Snow  
Snow 0.00 in 0.00 in 0.00 in ()
Month to date snowfall 0.0 0.0  
Since 1 June snowfall 0.0 0.0  
Since 1 July snowfall 0.0 0.0  
Snow Depth 0.00 in    
Sea Level Pressure  
Sea Level Pressure 29.97 in    
Wind  
Wind Speed 7 mph (SW)    
Max Wind Speed 17 mph    
Max Gust Speed 23 mph    
Visibility 10 miles    
Events      
T = Trace of Precipitation, MM = Missing Value Source: NWS Daily Summary

Daily Weather History Graph

Daily Weather History Graph

Search for Another Location

Airport or City:

Trip Planner

Search our weather history database for the weather conditions in past years. The results will help you decide how hot, cold, wet, or windy it might be!

Date:

Astronomy

Aug. 12, 2013 Rise Set
Actual Time 6:17 AM EDT 8:21 PM EDT
Civil Twilight 5:47 AM EDT 8:51 PM EDT
Nautical Twilight 5:09 AM EDT 9:29 PM EDT
Astronomical Twilight 4:27 AM EDT 10:11 PM EDT
Moon 12:17 PM EDT (8/12) 11:01 PM EDT (8/12)
Length of Visible Light 15h 04m
Length of Day
14h 03m
Waxing Crescent, 31% of the Moon is Illuminated
Aug 12
Waxing Crescent
Aug 14
First Quarter
Aug 20
Full
Aug 28
Last Quarter
Sep 5
New

Hourly Weather History & Observations

Time (EDT) Temp. Dew Point Humidity Pressure Visibility Wind Dir Wind Speed Gust Speed Precip Events Conditions
12:54 AM 66.0 °F 54.0 °F 65% 30.05 in 10.0 mi South 4.6 mph - N/A   Overcast
1:54 AM 66.9 °F 54.0 °F 63% 30.05 in 10.0 mi SSW 3.5 mph - N/A   Overcast
2:54 AM 66.9 °F 54.0 °F 63% 30.04 in 10.0 mi Calm Calm - N/A   Mostly Cloudy
3:54 AM 64.9 °F 55.0 °F 70% 30.04 in 10.0 mi South 3.5 mph - N/A   Scattered Clouds
4:54 AM 64.0 °F 55.9 °F 75% 30.04 in 10.0 mi Calm Calm - N/A   Mostly Cloudy
5:54 AM 64.9 °F 55.0 °F 70% 30.04 in 10.0 mi Calm Calm - N/A   Mostly Cloudy
6:54 AM 63.0 °F 55.9 °F 78% 30.04 in 10.0 mi Calm Calm - N/A   Scattered Clouds
7:54 AM 64.9 °F 57.0 °F 75% 30.04 in 10.0 mi South 3.5 mph - N/A   Mostly Cloudy
8:54 AM 68.0 °F 57.9 °F 70% 30.04 in 10.0 mi South 4.6 mph - N/A   Mostly Cloudy
9:54 AM 72.0 °F 55.9 °F 57% 30.03 in 10.0 mi Calm Calm - N/A   Mostly Cloudy
10:54 AM 73.0 °F 57.0 °F 57% 30.02 in 10.0 mi South 6.9 mph - N/A   Mostly Cloudy
11:54 AM 73.9 °F 55.9 °F 53% 30.00 in 10.0 mi WSW 5.8 mph - N/A   Mostly Cloudy
12:54 PM 75.0 °F 57.9 °F 55% 29.99 in 10.0 mi SW 11.5 mph - N/A   Mostly Cloudy
1:54 PM 73.9 °F 55.9 °F 53% 29.98 in 10.0 mi SW 10.4 mph - N/A   Overcast
2:54 PM 73.0 °F 55.9 °F 55% 29.98 in 10.0 mi WSW 13.8 mph 19.6 mph N/A   Mostly Cloudy
3:54 PM 71.1 °F 61.0 °F 70% 29.97 in 10.0 mi SW 12.7 mph - N/A   Overcast
4:54 PM 71.1 °F 62.1 °F 73% 29.95 in 10.0 mi SW 12.7 mph 20.7 mph N/A   Overcast
5:31 PM 71.6 °F 62.6 °F 73% 29.94 in 10.0 mi WSW 12.7 mph 21.9 mph N/A   Overcast
5:54 PM 72.0 °F 63.0 °F 73% 29.93 in 10.0 mi SW 13.8 mph 23.0 mph N/A   Mostly Cloudy
6:43 PM 71.6 °F 62.6 °F 73% 29.92 in 10.0 mi SW 15.0 mph 21.9 mph N/A   Mostly Cloudy
6:51 PM 71.6 °F 62.6 °F 73% 29.92 in 10.0 mi SW 11.5 mph - N/A   Mostly Cloudy
6:54 PM 71.1 °F 62.1 °F 73% 29.91 in 10.0 mi SW 8.1 mph - N/A   Mostly Cloudy
7:54 PM 70.0 °F 63.0 °F 78% 29.90 in 10.0 mi SW 16.1 mph - N/A   Mostly Cloudy
8:50 PM 69.8 °F 62.6 °F 78% 29.89 in 10.0 mi SW 12.7 mph - N/A   Mostly Cloudy
8:54 PM 70.0 °F 63.0 °F 78% 29.89 in 10.0 mi SW 11.5 mph - N/A   Mostly Cloudy
9:39 PM 69.8 °F 62.6 °F 78% 29.89 in 10.0 mi SW 11.5 mph - N/A   Mostly Cloudy
9:54 PM 69.1 °F 62.1 °F 78% 29.88 in 10.0 mi SSW 10.4 mph - N/A   Mostly Cloudy
10:23 PM 69.8 °F 62.6 °F 78% 29.89 in 10.0 mi SSW 8.1 mph - N/A   Mostly Cloudy
10:52 PM 69.8 °F 62.6 °F 78% 29.88 in 10.0 mi SSW 9.2 mph - N/A   Mostly Cloudy
10:54 PM 69.1 °F 62.1 °F 78% 29.88 in 10.0 mi SSW 9.2 mph - N/A   Mostly Cloudy
11:54 PM 69.1 °F 61.0 °F 75% 29.86 in 10.0 mi SSW 8.1 mph - N/A   Mostly Cloudy